SL-19 DEB, 24679

Orbit data source: Space-Track

SL-19 DEB, 24679 is space debris in LEO originally from a launch on Mon, 26 Dec 1994 UTC launched from the Tyuratam Missile And Space Complex (TTMTR). Debris objects in space refer to the collection of defunct objects orbiting the Earth. Examples of debris include non-operational satellites, rocket bodies, and fragments generated from explosions, collisions, or faulty payload assembly.

Loading next visibility...
Identifier
24679, 1994-085Y
Orbit
LEO
Country
Flag of CISCIS
Related business
Manufacturer
Unknown
Mission
Spacecraft
Bus & Motor
Unknown
Mass
Unknown
Launch date (UTC)
1994-12-26 (31 years ago)
Launch vehicle
Unknown
Launch site
Tyuratam Missile And Space Complex (TTMTR)
Object type
Payload
Rocket body
Debris
Shape & HBR
Unknown shape, 0.1 m
Radar Cross Section
Small (<0.1 m²)

Expand to show TLE details & history
Last TLE update: 11 hours ago

TLE from 11 hours ago
0 SL-19 DEB
1 24679U 94085Y   26062.44289652 -.00000033  00000-0  24733-3 0  9999
2 24679  64.9854  50.8453 0175862 125.8029 315.2894 11.32313896454223
Epoch: 2026-03-03T10:37Z
TLE epoch observation values (Epoch: 2026-03-03T10:37:46.259Z)
Latitude
63.16185°
Longitude
156.80109°
Altitude
1,905.442 km
Speed
6.987 km/s
True Right ascension
07h 49m 51s
True Declination
63° 02' 32"
Sunlit
Object was in daylight at epoch
Visualization orbit readout
Latitude
Unknown
Longitude
Unknown
Altitude
Unknown
Speed
Unknown
Apparent Right ascension
Unknown
Apparent Declination
Unknown
Sunlit
N/A
Visualization observer readout
Local Sidereal Time
01:40:06
Azimuth
Unknown
Elevation
Unknown
Doppler factor
Unknown
Orbital elements
Apogee altitude
2,144.989 km
Perigee altitude
1,850.391 km
Semi-major axis
8,375.827 km
Eccentricity
0.01759
Inclination
64.9854°
RAAN
50.8453°
Arg. of periapsis
125.8029°
True anomaly
313.8493°
Mean anomaly
315.2894°
Eccentric anomaly
314.5716°
Mean motion
2.8314 °/min
Orbital period
127.15 mins
BSTAR
0.00024733
Loading maneuver chart data...
Computing Atmospheric mass density...
Loading historical data...
Loading historical data...
Loading historical data...
Loading historical data...
Loading historical data...
Loading historical data...
Loading historical data...

Documentation

Showing up to 5 results
|